Franklin, NC

4:49 AM EDT on October 23, 2019 (GMT -0400)
Franklin

Weather History for K1A5 - September, 2019

Change the Weather History Date:

Saturday, September 21, 2019

  Actual Average (KTOC) Record (KTOC)
Temperature  
Mean Temperature 69 °F -  
Max Temperature 84 °F 81 °F 93 °F (2016)
Min Temperature 54 °F 60 °F 59 °F (2014)
Cooling Degree Days 4    
Growing Degree Days 19 (Base 50)    
Moisture  
Dew Point 58 °F    
Average Humidity 78    
Maximum Humidity 98    
Minimum Humidity 40    
Precipitation  
Precipitation 0.00 in - - ()
Sea Level Pressure  
Sea Level Pressure 30.37 in    
Wind  
Wind Speed 0 mph ()    
Max Wind Speed 9 mph    
Max Gust Speed -    
Visibility 7.2 miles    
Events Fog    
Averages and records for this station are not official NWS values.
T = Trace of Precipitation, MM = Missing Value Source: Averaged Metar Reports

Daily Weather History Graph

Daily Weather History Graph

Search for Another Location

Airport or City:

Astronomy

Sep. 21, 2019 Rise Set
Actual Time 7:20 AM EDT 7:32 PM EDT
Civil Twilight 6:55 AM EDT 7:57 PM EDT
Nautical Twilight 6:25 AM EDT 8:27 PM EDT
Astronomical Twilight 5:55 AM EDT 8:57 PM EDT
Moon No Moon Rise 2:11 PM EDT (9/21)
Length of Visible Light 13h 02m
Length of Day
12h 11m
Waning Gibbous, 55% of the Moon is Illuminated
Sep 21
Waning Gibbous
Sep 21
Last Quarter
Sep 28
New
Oct 5
First Quarter
Oct 13
Full

Hourly Weather History & Observations

Time (EDT) Temp. Heat Index Dew Point Humidity Pressure Visibility Wind Dir Wind Speed Gust Speed Precip Events Conditions
12:15 AM 59.4 °F - 58.1 °F 96% 30.39 in 10.0 mi Calm Calm - N/A   Mostly Cloudy
12:35 AM 59.0 °F - 57.7 °F 96% 30.39 in 10.0 mi Calm Calm - N/A   Scattered Clouds
12:55 AM 58.3 °F - 57.2 °F 96% 30.39 in 5.0 mi Calm Calm - N/A   Clear
1:15 AM 57.6 °F - 56.5 °F 96% 30.39 in 7.0 mi Calm Calm - N/A   Clear
1:35 AM 57.0 °F - 55.9 °F 96% 30.39 in 7.0 mi Calm Calm - N/A   Clear
1:55 AM 56.3 °F - 55.4 °F 97% 30.39 in 5.0 mi Calm Calm - N/A   Scattered Clouds
2:15 AM 57.2 °F - 55.9 °F 96% 30.39 in 10.0 mi Calm Calm - N/A   Overcast
2:35 AM 56.5 °F - 55.6 °F 97% 30.39 in 5.0 mi Calm Calm - N/A   Scattered Clouds
2:55 AM 55.6 °F - 54.7 °F 97% 30.39 in 1.0 mi Calm Calm - N/A   Mist
3:15 AM 55.8 °F - 54.9 °F 97% 30.38 in 4.0 mi Calm Calm - N/A   Clear
3:35 AM 54.7 °F - 53.8 °F 97% 30.38 in 5.0 mi Calm Calm - N/A   Clear
3:55 AM 54.9 °F - 54.0 °F 97% 30.38 in 5.0 mi Calm Calm - N/A   Mostly Cloudy
4:15 AM 55.6 °F - 54.7 °F 97% 30.38 in 7.0 mi Calm Calm - N/A   Overcast
4:35 AM 56.3 °F - 55.4 °F 97% 30.39 in 7.0 mi Calm Calm - N/A   Overcast
5:15 AM 57.4 °F - 56.5 °F 97% 30.39 in 0.5 mi Calm Calm - N/A Fog Fog
6:15 AM 57.4 °F - 56.7 °F 97% 30.40 in 0.2 mi Calm Calm - N/A Fog Fog
6:35 AM 56.5 °F - 55.6 °F 97% 30.41 in 0.5 mi Calm Calm - N/A Fog Fog
6:55 AM 55.9 °F - 55.4 °F 98% 30.42 in 0.5 mi Calm Calm - N/A Fog Fog
7:15 AM 55.9 °F - 55.4 °F 98% 30.42 in 0.5 mi Calm Calm - N/A Fog Fog
7:35 AM 56.3 °F - 55.6 °F 97% 30.42 in 0.2 mi Calm Calm - N/A Fog Fog
7:55 AM 56.5 °F - 55.8 °F 97% 30.43 in 0.2 mi Calm Calm - N/A Fog Fog
8:15 AM 56.3 °F - 55.4 °F 97% 30.43 in 0.2 mi Calm Calm - N/A Fog Fog
8:35 AM 56.5 °F - 55.8 °F 97% 30.44 in 3.0 mi Calm Calm - N/A   Overcast
8:55 AM 56.8 °F - 55.9 °F 97% 30.44 in 0.5 mi Calm Calm - N/A Fog Fog
9:15 AM 57.6 °F - 56.8 °F 97% 30.44 in 0.8 mi Calm Calm - N/A   Overcast
9:35 AM 57.6 °F - 56.7 °F 97% 30.44 in 7.0 mi Calm Calm - N/A   Overcast
9:55 AM 59.0 °F - 57.4 °F 94% 30.44 in 10.0 mi Calm Calm - N/A   Mostly Cloudy
10:15 AM 61.7 °F - 57.9 °F 87% 30.43 in 10.0 mi Calm Calm - N/A   Scattered Clouds
10:35 AM 63.9 °F - 58.5 °F 83% 30.43 in 10.0 mi Calm Calm - N/A   Scattered Clouds
10:55 AM 65.8 °F - 58.5 °F 77% 30.42 in 10.0 mi Calm Calm - N/A   Clear
11:35 AM 73.0 °F - 60.1 °F 64% 30.41 in 10.0 mi Calm Calm - N/A   Clear
11:55 AM 74.7 °F - 60.3 °F 61% 30.40 in 10.0 mi ESE 3.5 mph - N/A   Clear
12:15 PM 76.5 °F - 60.6 °F 58% 30.39 in 10.0 mi Calm Calm - N/A   Clear
12:35 PM 77.0 °F - 59.9 °F 55% 30.39 in 10.0 mi Calm Calm - N/A   Clear
12:55 PM 78.8 °F - 60.3 °F 53% 30.38 in 10.0 mi Calm Calm - N/A   Clear
1:15 PM 80.4 °F 81.4 °F 61.2 °F 52% 30.37 in 10.0 mi Calm Calm - N/A   Clear
1:35 PM 79.9 °F - 59.2 °F 49% 30.36 in 10.0 mi Calm Calm - N/A   Clear
1:55 PM 81.7 °F 82.0 °F 59.4 °F 47% 30.35 in 10.0 mi WSW 3.5 mph - N/A   Clear
2:15 PM 79.7 °F - 59.2 °F 49% 30.34 in 10.0 mi WSW 5.8 mph - N/A   Mostly Cloudy
2:35 PM 82.6 °F 82.6 °F 59.4 °F 45% 30.34 in 10.0 mi SW 4.6 mph - N/A   Mostly Cloudy
2:55 PM 83.8 °F 83.4 °F 58.5 °F 42% 30.33 in 10.0 mi Calm Calm - N/A   Mostly Cloudy
3:15 PM 84.0 °F 83.8 °F 59.0 °F 43% 30.32 in 10.0 mi Calm Calm - N/A   Mostly Cloudy
3:35 PM 83.5 °F 83.2 °F 58.8 °F 43% 30.32 in 10.0 mi SW 5.8 mph - N/A   Scattered Clouds
3:55 PM 83.8 °F 83.4 °F 58.3 °F 42% 30.31 in 10.0 mi WSW 9.2 mph - N/A   Scattered Clouds
4:15 PM 83.3 °F 82.9 °F 57.9 °F 42% 30.30 in 10.0 mi SW 4.6 mph - N/A   Scattered Clouds
4:35 PM 84.2 °F 83.5 °F 57.6 °F 40% 30.30 in 10.0 mi South 3.5 mph - N/A   Clear
4:55 PM 83.7 °F 83.0 °F 57.2 °F 40% 30.30 in 10.0 mi WSW 6.9 mph - N/A   Scattered Clouds
5:35 PM 83.5 °F 82.9 °F 57.7 °F 41% 30.29 in 10.0 mi Calm Calm - N/A   Mostly Cloudy
5:55 PM 82.4 °F 82.2 °F 57.9 °F 43% 30.29 in 10.0 mi Calm Calm - N/A   Scattered Clouds
6:15 PM 81.5 °F 81.6 °F 58.1 °F 45% 30.29 in 10.0 mi Calm Calm - N/A   Clear
6:35 PM 80.6 °F 80.9 °F 57.9 °F 46% 30.29 in 10.0 mi Calm Calm - N/A   Scattered Clouds
6:55 PM 79.3 °F - 58.1 °F 48% 30.29 in 10.0 mi Calm Calm - N/A   Scattered Clouds
7:15 PM 76.1 °F - 59.0 °F 55% 30.30 in 10.0 mi Calm Calm - N/A   Scattered Clouds
7:35 PM 71.4 °F - 60.8 °F 69% 30.30 in 10.0 mi Calm Calm - N/A   Scattered Clouds
7:55 PM 68.7 °F - 61.0 °F 76% 30.30 in 10.0 mi Calm Calm - N/A   Scattered Clouds
8:15 PM 65.8 °F - 61.0 °F 84% 30.31 in 10.0 mi Calm Calm - N/A   Clear
8:35 PM 65.1 °F - 60.8 °F 86% 30.31 in 10.0 mi Calm Calm - N/A   Mostly Cloudy
8:55 PM 64.4 °F - 60.4 °F 87% 30.32 in 10.0 mi Calm Calm - N/A   Scattered Clouds
9:15 PM 62.8 °F - 60.4 °F 92% 30.32 in 10.0 mi Calm Calm - N/A   Clear
9:35 PM 61.7 °F - 59.5 °F 93% 30.33 in 10.0 mi Calm Calm - N/A   Clear
9:55 PM 61.2 °F - 59.4 °F 94% 30.34 in 10.0 mi Calm Calm - N/A   Clear
10:15 PM 60.1 °F - 58.5 °F 94% 30.34 in 10.0 mi Calm Calm - N/A   Clear
10:35 PM 59.9 °F - 58.8 °F 96% 30.35 in 3.0 mi Calm Calm - N/A   Clear
10:55 PM 59.9 °F - 58.5 °F 95% 30.35 in 7.0 mi Calm Calm - N/A   Clear
11:15 PM 58.8 °F - 57.7 °F 96% 30.35 in 5.0 mi Calm Calm - N/A   Clear
11:35 PM 58.5 °F - 57.6 °F 97% 30.35 in 3.0 mi Calm Calm - N/A   Clear
11:55 PM 58.6 °F - 57.7 °F 97% 30.35 in 4.0 mi Calm Calm - N/A   Clear